Regional Weather Roundup
Issued by NWS Little Rock, AR

Home | Current Version | Previous Version | Graphics & Text | Print | Product List | Glossary On
Versions: 1 2 3 4 5 6 7 8 9 10 11 12 13 14 15 16 17 18 19 20 21 22 23 24 25 26 27 28 29 30 31 32
000
ASUS44 KLZK 261505
RWRLZK

WEATHER ROUNDUP FOR ARKANSAS
NATIONAL WEATHER SERVICE LITTLE ROCK AR
1000 AM CDT MON JUN 26 2017

NOTE: "FAIR" INDICATES FEW OR NO CLOUDS BELOW 12,000 FEET WITH NO
SIGNIFICANT WEATHER AND/OR OBSTRUCTIONS TO VISIBILITY.

ARZ001-003-010-029-261600-
NORTHWEST ARKANSAS

CITY           SKY/WX    TMP DP  RH WIND       PRES   REMARKS
FAYETTEVILLE   MOSUNNY   73  61  65 E3        30.24S
FORT SMITH     MOSUNNY   78  62  57 E6        30.20F
HARRISON       PTSUNNY   70  56  61 SE10      30.26F
BENTONVILLE    MOSUNNY   73  59  60 SE3       30.25S
ROGERS         MOSUNNY   73  60  63 SE9       30.24F
SILOAM SPGS    MOSUNNY   73  61  64 SE7       30.23F
HIGHFILL       PTSUNNY   74  61  63 E6        30.24F
SPRINGDALE     PTSUNNY   72  61  68 E7        30.26S
$$

ARZ004-005-016-261600-
NORTH CENTRAL ARKANSAS

CITY           SKY/WX    TMP DP  RH WIND       PRES   REMARKS
BATESVILLE     PTSUNNY   75  55  50 E3        30.24F
FLIPPIN        MOSUNNY   70  54  56 S5        30.22F
MTN HOME       MOSUNNY   71  60  68 VRB7      30.23F
$$

ARZ040-041-261600-
WEST CENTRAL ARKANSAS

CITY           SKY/WX    TMP DP  RH WIND       PRES   REMARKS
MENA           PTSUNNY   79  68  69 CALM      30.23S
MOUNT IDA      SUNNY     78  61  55 VRB3      30.19F
$$

ARZ009-017-025-026-028-261600-
NORTHEAST ARKANSAS

CITY           SKY/WX    TMP DP  RH WIND       PRES   REMARKS
JONESBORO      MOSUNNY   77  59  53 NE12      30.22F
WALNUT RIDGE   CLOUDY    72  55  56 NE9       30.24S
BLYTHEVILLE    CLOUDY    74  56  53 NE8       30.23S
$$

ARZ022-023-033-042-044-261600-
CENTRAL ARKANSAS

CITY           SKY/WX    TMP DP  RH WIND       PRES   REMARKS
LITTLE ROCK    MOSUNNY   79  64  60 N6        30.21S
N LITTLE ROCK    N/A     79  63  58 NE5       30.20F
JACKSONVILLE   SUNNY     78  65  65 NE7       30.21S
CONWAY           N/A     79  64  61 VRB6      30.19F
SEARCY         MOSUNNY   77  62  59 N9        30.24S
HOT SPRINGS    SUNNY     80  62  54 CALM      30.21S
RUSSELLVILLE   MOSUNNY   78  60  53 E5        30.21S
CLINTON        FAIR      75  57  53 VRB3      30.24F
$$

ARZ036-261600-
EAST ARKANSAS

CITY           SKY/WX    TMP DP  RH WIND       PRES   REMARKS
WEST MEMPHIS   CLOUDY    73  66  78 N5        30.20S
$$

ARZ050-053-066-070-073-261600-
SOUTHWEST ARKANSAS

CITY           SKY/WX    TMP DP  RH WIND       PRES   REMARKS
CAMDEN         SUNNY     81  63  54 CALM      30.20S
TEXARKANA      PTSUNNY   76  66  71 VRB5      30.20S
EL DORADO      SUNNY     79  64  60 NE7       30.20S
DE QUEEN       CLOUDY    74  67  78 NE3       30.19S
$$

ARZ056-057-069-261600-
SOUTHEAST ARKANSAS

CITY           SKY/WX    TMP DP  RH WIND       PRES   REMARKS
PINE BLUFF     CLOUDY    73  66  78 CALM      30.20S
STUTTGART      CLOUDY    75  55  50 NE6       30.21F
MONTICELLO     CLOUDY    80  62  54 VRB5      30.20S

$$






USA.gov is the U.S. government's official web portal to all federal, state and local government web resources and services.